Location: Aalen
(48.8330°N, 10.1000°E)
Time: 07:08:31
(UTC+02:00)

UWE-3 - Pass Details

Date: 02 April 2023
Orbit: 576 x 670 km, 97.7° (Epoch: 29 May)

Event Time Altitude Azimuth Distance (km) Brightness Sun altitude
Rises 03:53:10 0° 18° (NNE) 2,980 ? -27.3°
Reaches altitude 10° 03:55:31 10° 26° (NNE) 2,050 ? -27.0°
Maximum altitude 03:59:47 43° 98° (E) 896 ? -26.5°
Enters shadow 04:00:10 42° 113° (ESE) 909 ? -26.5°
